period_start,C,m1,H,J0,J1,J2,J3,J4,J5,JA,JB,JC,JD,JJ,JK,JN,#
2016-09-17 00:00:14,0.27,7.87,0.00,24.59,28.65,31.49,14.53,52.58,1018.57,2027.00,1379.46,1771.06,1921.15,599.64,593.61,55.30,0000 0000 0000 0000 000000
2016-09-17 00:05:15,0.28,7.88,0.00,24.56,28.65,31.44,14.53,52.48,1018.61,2027.00,1377.85,1769.49,1919.44,600.19,594.26,55.35,0000 0000 0000 0000 000000
2016-09-17 00:10:16,0.25,7.90,0.00,24.52,28.65,31.50,14.59,52.51,1018.93,2027.00,1376.36,1767.91,1917.72,600.11,594.36,55.41,0000 0000 0000 0000 000000
2016-09-17 00:15:18,0.26,7.91,0.00,24.49,28.65,31.52,14.49,52.20,1019.06,2027.00,1374.75,1766.52,1916.11,600.05,594.52,55.46,0000 0000 0000 0000 000000
2016-09-17 00:20:19,0.22,7.92,0.00,24.54,28.65,31.53,14.63,52.47,1019.06,2027.00,1373.42,1765.19,1914.58,600.25,594.60,55.51,0000 0000 0000 0000 000000
2016-09-17 00:25:20,0.20,7.93,0.00,24.53,28.65,31.51,14.57,52.27,1019.06,2027.00,1372.19,1763.86,1913.12,599.84,594.28,55.56,0000 0000 0000 0000 000000
2016-09-17 00:30:22,0.25,7.94,0.00,24.58,28.65,31.47,14.55,52.37,1019.06,2027.00,1370.84,1762.56,1911.66,600.11,594.41,55.61,0000 0000 0000 0000 000000
2016-09-17 00:35:23,0.18,7.95,0.00,24.54,28.65,31.47,14.58,52.27,1019.06,2027.00,1369.76,1761.42,1910.36,600.16,594.53,55.66,0000 0000 0000 0000 000000
2016-09-17 00:40:24,0.18,7.96,0.00,24.53,28.65,31.52,14.54,52.43,1019.06,2027.00,1368.75,1760.37,1909.12,599.92,594.39,55.71,0000 0000 0000 0000 000000
2016-09-17 00:45:26,0.16,7.97,0.00,24.53,28.65,31.54,14.61,52.51,1019.06,2027.00,1367.77,1759.37,1907.96,600.19,594.54,55.76,0000 0000 0000 0000 000000
2016-09-17 00:50:27,0.17,7.98,0.00,24.55,28.66,31.51,14.65,52.38,1019.06,2027.00,1366.82,1758.25,1906.86,599.88,594.30,55.81,0000 0000 0000 0000 000000
2016-09-17 00:55:28,0.17,7.99,0.00,24.56,28.67,31.51,14.56,52.60,1019.06,2027.00,1365.84,1757.34,1905.76,599.86,594.19,55.86,0000 0000 0000 0000 000000
2016-09-17 01:00:30,0.17,8.00,0.00,24.49,28.67,31.53,14.53,52.44,1019.07,2027.00,1364.81,1756.33,1904.69,599.96,594.46,55.91,0000 0000 0000 0000 000000
2016-09-17 01:05:31,0.15,8.01,0.00,24.50,28.67,31.56,14.56,52.38,1019.06,2027.00,1363.86,1755.44,1903.67,600.18,594.67,55.96,0000 0000 0000 0000 000000
2016-09-17 01:10:32,0.17,8.02,0.00,24.59,28.67,31.51,14.59,52.42,1019.06,2026.99,1362.92,1754.48,1902.57,600.27,594.60,56.01,0000 0000 0000 0000 000000
2016-09-17 01:15:33,0.14,8.02,0.00,24.56,28.67,31.48,14.54,52.44,1019.06,2026.99,1362.04,1753.64,1901.59,600.10,594.44,56.06,0000 0000 0000 0000 000000
2016-09-17 01:20:35,0.12,8.03,0.00,24.54,28.67,31.47,14.56,52.42,1019.06,2026.99,1361.15,1752.92,1900.73,599.99,594.36,56.11,0000 0000 0000 0000 000000
2016-09-17 01:25:36,0.14,8.04,0.00,24.53,28.67,31.50,14.58,52.54,1019.06,2026.99,1360.47,1752.06,1899.87,600.21,594.54,56.16,0000 0000 0000 0000 000000
2016-09-17 01:30:37,0.13,8.05,0.00,24.50,28.67,31.53,14.50,52.37,1019.06,2026.99,1359.76,1751.19,1898.92,599.93,594.50,56.21,0000 0000 0000 0000 000000
2016-09-17 01:35:39,0.14,8.05,0.00,24.54,28.67,31.50,14.49,52.31,1019.06,2026.99,1358.94,1750.38,1897.99,599.49,593.94,56.26,0000 0000 0000 0000 000000
2016-09-17 01:40:40,0.15,8.06,0.00,24.58,28.67,31.46,14.47,52.40,1019.06,2026.98,1358.10,1749.56,1897.06,599.42,593.60,56.31,0000 0000 0000 0000 000000
2016-09-17 01:45:41,0.13,8.07,0.00,24.52,28.68,31.44,14.51,51.94,1019.06,2026.98,1357.32,1748.86,1896.16,600.20,594.62,56.37,0000 0000 0000 0000 000000
2016-09-17 01:50:42,0.13,8.07,0.00,24.52,28.69,31.51,14.56,52.38,1019.06,2026.98,1356.67,1748.01,1895.42,600.10,594.49,56.42,0000 0000 0000 0000 000000
2016-09-17 01:55:44,0.15,8.08,0.00,24.50,28.69,31.48,14.55,52.33,1019.07,2026.98,1355.84,1747.14,1894.39,599.88,594.35,56.47,0000 0000 0000 0000 000000
2016-09-17 02:00:45,0.13,8.09,0.00,24.50,28.70,31.46,14.62,52.48,1019.06,2026.98,1355.03,1746.48,1893.62,600.02,594.51,56.52,0000 0000 0000 0000 000000
2016-09-17 02:05:47,0.16,8.10,0.00,24.51,28.70,31.49,14.54,52.52,1019.08,2026.98,1354.10,1745.58,1892.62,599.91,594.21,56.57,0000 0000 0000 0000 000000
2016-09-17 02:10:48,0.16,8.10,0.00,24.52,28.70,31.46,14.59,52.54,1019.07,2026.98,1353.19,1744.66,1891.59,599.59,594.04,56.62,0000 0000 0000 0000 000000
2016-09-17 02:15:49,0.14,8.11,0.00,24.51,28.70,31.41,14.48,52.27,1019.07,2026.98,1352.36,1743.84,1890.61,600.22,594.47,56.67,0000 0000 0000 0000 000000
2016-09-17 02:20:51,0.16,8.12,0.00,24.48,28.70,31.42,14.55,52.23,1019.06,2026.94,1351.42,1742.89,1889.56,599.76,594.24,56.72,0000 0000 0000 0000 000000
2016-09-17 02:25:52,0.16,8.13,0.00,24.49,28.70,31.43,14.54,52.22,1019.06,2026.98,1350.54,1742.00,1888.53,600.08,594.50,56.77,0000 0000 0000 0000 000000
2016-09-17 02:30:53,0.15,8.14,0.00,24.50,28.70,31.38,14.51,52.33,1019.06,2026.97,1349.71,1741.09,1887.61,599.76,594.22,56.82,0000 0000 0000 0000 000000
2016-09-17 02:35:55,0.14,8.14,0.00,24.50,28.70,31.40,14.58,52.38,1019.06,2026.97,1348.88,1740.21,1886.56,600.37,594.83,56.87,0000 0000 0000 0000 000000
2016-09-17 02:40:56,0.17,8.15,0.00,24.46,28.70,31.42,14.52,52.23,1019.06,2026.96,1347.93,1739.34,1885.58,599.85,594.57,56.92,0000 0000 0000 0000 000000
2016-09-17 02:45:57,0.17,8.16,0.00,24.44,28.70,31.49,14.54,52.31,1019.06,2026.97,1346.88,1738.50,1884.58,600.18,594.53,56.97,0000 0000 0000 0000 000000
2016-09-17 02:50:58,0.18,8.17,0.00,24.51,28.70,31.44,14.50,52.39,1019.06,2026.95,1345.75,1737.58,1883.48,600.15,594.66,57.02,0000 0000 0000 0000 000000
2016-09-17 02:55:59,0.20,8.18,0.00,24.52,28.70,31.38,14.50,52.37,1019.06,2026.96,1344.52,1736.59,1882.37,599.57,594.09,57.07,0000 0000 0000 0000 000000
2016-09-17 03:01:01,0.18,8.19,0.00,24.46,28.70,31.43,14.54,52.31,1019.07,2026.98,1343.40,1735.55,1881.25,600.26,594.72,57.12,0000 0000 0000 0000 000000
2016-09-17 03:06:03,0.15,8.20,0.00,24.50,28.70,31.39,14.55,52.20,1019.07,2026.96,1342.54,1734.61,1880.15,600.11,594.57,57.17,0000 0000 0000 0000 000000
2016-09-17 03:11:04,0.15,8.20,0.00,24.45,28.70,31.44,14.54,52.38,1019.07,2026.92,1341.57,1733.73,1879.11,600.04,594.63,57.23,0000 0000 0000 0000 000000
2016-09-17 03:16:05,0.14,8.21,0.00,24.47,28.70,31.39,14.56,52.38,1019.11,2026.91,1340.67,1732.92,1878.13,599.82,594.41,57.28,0000 0000 0000 0000 000000
2016-09-17 03:21:07,0.16,8.22,0.00,24.48,28.70,31.37,14.46,52.11,1019.28,2026.93,1339.61,1732.06,1877.20,599.71,594.39,57.33,0000 0000 0000 0000 000000
2016-09-17 03:26:08,0.17,8.23,0.00,24.46,28.70,31.42,14.52,52.36,1019.46,2026.87,1338.61,1731.18,1876.32,600.12,594.78,57.38,0000 0000 0000 0000 000000
2016-09-17 03:31:09,0.19,8.24,0.00,24.45,28.70,31.42,14.60,52.56,1019.54,2026.89,1337.40,1730.34,1875.30,599.99,594.88,57.43,0000 0000 0000 0000 000000
2016-09-17 03:36:10,0.17,8.25,0.00,24.46,28.70,31.37,14.57,52.41,1019.53,2026.96,1336.40,1729.50,1874.31,600.07,594.86,57.48,0000 0000 0000 0000 000000
2016-09-17 03:41:11,0.12,8.25,0.00,24.45,28.70,31.35,14.50,52.65,1019.47,2026.91,1335.53,1728.75,1873.35,599.68,594.48,57.53,0000 0000 0000 0000 000000
2016-09-17 03:46:13,0.14,8.26,0.00,24.44,28.70,31.35,14.56,52.37,1019.54,2026.87,1334.54,1727.97,1872.49,600.12,594.88,57.58,0000 0000 0000 0000 000000
2016-09-17 03:51:14,0.14,8.27,0.00,24.48,28.70,31.36,14.57,52.54,1019.50,2026.79,1333.55,1727.12,1871.64,600.18,594.87,57.63,0000 0000 0000 0000 000000
2016-09-17 03:56:16,0.16,8.28,0.00,24.47,28.70,31.37,14.59,52.56,1019.50,2026.79,1332.57,1726.49,1870.71,599.91,594.65,57.68,0000 0000 0000 0000 000000
2016-09-17 04:01:17,0.14,8.28,0.00,24.42,28.70,31.38,14.57,52.43,1019.47,2026.84,1331.50,1725.74,1869.83,599.98,594.68,57.73,0000 0000 0000 0000 000000
2016-09-17 04:06:18,0.14,8.29,0.00,24.44,28.70,31.42,14.55,52.58,1019.51,2026.87,1330.51,1724.95,1868.92,600.08,594.96,57.78,0000 0000 0000 0000 000000
2016-09-17 04:11:19,0.15,8.30,0.00,24.48,28.70,31.40,14.57,52.46,1019.49,2026.74,1329.41,1724.08,1867.95,600.43,595.23,57.83,0000 0000 0000 0000 000000
2016-09-17 04:16:21,0.19,8.31,0.00,24.46,28.70,31.43,14.55,52.55,1019.46,2026.76,1328.29,1723.18,1866.90,600.07,594.80,57.88,0000 0000 0000 0000 000000
2016-09-17 04:21:22,0.17,8.32,0.00,24.43,28.71,31.37,14.52,52.46,1019.51,2026.63,1326.97,1722.17,1865.77,599.97,594.77,57.93,0000 0000 0000 0000 000000
2016-09-17 04:26:23,0.23,8.33,0.00,24.41,28.71,31.39,14.58,52.50,1019.54,2026.63,1325.67,1721.17,1864.59,600.22,595.13,57.98,0000 0000 0000 0000 000000
2016-09-17 04:31:25,0.17,8.34,0.00,24.49,28.72,31.34,14.53,52.30,1019.55,2026.59,1324.43,1720.19,1863.42,600.23,594.99,58.03,0000 0000 0000 0000 000000
2016-09-17 04:36:26,0.21,8.35,0.00,24.46,28.72,31.36,14.54,52.58,1019.55,2026.66,1323.19,1719.13,1862.25,599.93,594.75,58.08,0000 0000 0000 0000 000000
2016-09-17 04:41:27,0.25,8.36,0.00,24.48,28.72,31.33,14.53,52.61,1019.55,2026.75,1321.80,1717.97,1860.90,600.06,594.95,58.13,0000 0000 0000 0000 000000
2016-09-17 04:46:28,0.22,8.37,0.00,24.45,28.72,31.34,14.57,52.62,1019.56,2026.58,1320.37,1716.81,1859.58,600.02,594.79,58.18,0000 0000 0000 0000 000000
2016-09-17 04:51:30,0.19,8.38,0.00,24.41,28.72,31.36,14.58,52.64,1019.56,2026.44,1318.97,1715.64,1858.23,600.45,595.39,58.23,0000 0000 0000 0000 000000
2016-09-17 04:56:31,0.24,8.39,0.00,24.41,28.72,31.36,14.61,52.42,1019.56,2026.38,1317.62,1714.45,1856.86,600.01,595.04,58.29,0000 0000 0000 0000 000000
2016-09-17 05:01:32,0.21,8.41,0.00,24.38,28.72,31.38,14.48,52.39,1019.57,2026.39,1316.24,1713.36,1855.62,599.95,595.00,58.34,0000 0000 0000 0000 000000
2016-09-17 05:06:33,0.22,8.42,0.00,24.45,28.72,31.38,14.57,52.56,1019.57,2026.33,1314.75,1712.14,1854.39,600.02,594.86,58.39,0000 0000 0000 0000 000000
2016-09-17 05:11:35,0.22,8.43,0.00,24.45,28.73,31.37,14.53,52.37,1019.60,2026.47,1313.43,1710.96,1853.03,600.02,594.82,58.44,0000 0000 0000 0000 000000
2016-09-17 05:16:36,0.21,8.44,0.00,24.41,28.74,31.38,14.49,52.39,1019.79,2026.20,1311.97,1709.76,1851.70,599.89,594.92,58.49,0000 0000 0000 0000 000000
2016-09-17 05:21:38,0.24,8.45,0.00,24.39,28.75,31.40,14.47,52.41,1019.91,2026.15,1310.52,1708.55,1850.40,599.88,595.02,58.54,0000 0000 0000 0000 000000
2016-09-17 05:26:39,0.19,8.47,0.00,24.46,28.75,31.40,14.48,52.42,1019.77,2026.11,1309.20,1707.49,1849.02,600.05,595.02,58.59,0000 0000 0000 0000 000000
2016-09-17 05:31:40,0.22,8.47,0.00,24.52,28.75,31.44,14.52,52.51,1019.73,2026.11,1307.90,1706.35,1847.77,599.79,594.57,58.64,0000 0000 0000 0000 000000
2016-09-17 05:36:42,0.22,8.49,0.00,24.45,28.75,31.37,14.51,52.50,1019.86,2026.07,1306.65,1705.28,1846.55,599.91,594.92,58.69,0000 0000 0000 0000 000000
2016-09-17 05:41:43,0.20,8.50,0.00,24.40,28.75,31.37,14.54,52.58,1019.96,2026.07,1305.40,1704.19,1845.33,600.28,595.47,58.74,0000 0000 0000 0000 000000
2016-09-17 05:46:44,0.18,8.51,0.00,24.43,28.75,31.37,14.62,52.70,1019.97,2026.05,1304.08,1703.16,1844.12,600.22,595.28,58.79,0000 0000 0000 0000 000000
2016-09-17 05:51:46,0.23,8.52,0.00,24.43,28.75,31.38,14.55,52.56,1020.03,2026.04,1302.76,1702.06,1842.86,599.86,595.05,58.84,0000 0000 0000 0000 000000
2016-09-17 05:56:47,0.20,8.53,0.00,24.39,28.76,31.37,14.64,52.82,1020.03,2026.05,1301.57,1701.06,1841.70,600.53,595.57,58.89,0000 0000 0000 0000 000000
2016-09-17 06:01:49,0.19,8.54,0.00,24.39,28.77,31.39,14.57,52.45,1020.04,2026.05,1300.38,1700.01,1840.57,600.12,595.42,58.94,0000 0000 0000 0000 000000
2016-09-17 06:06:50,0.18,8.55,0.00,24.51,28.77,31.38,14.52,52.44,1020.05,2026.04,1299.25,1699.02,1839.49,599.70,594.60,58.99,0000 0000 0000 0000 000000
2016-09-17 06:11:51,0.18,8.56,0.00,24.51,28.77,31.39,14.59,52.55,1020.06,2026.03,1298.14,1698.06,1838.35,599.87,594.88,59.04,0000 0000 0000 0000 000000
2016-09-17 06:16:53,0.19,8.57,0.00,24.45,28.77,31.39,14.63,52.54,1020.13,2026.02,1296.96,1697.08,1837.26,600.22,595.40,59.09,0000 0000 0000 0000 000000
2016-09-17 06:21:54,0.19,8.58,0.00,24.44,28.77,31.39,14.49,52.52,1020.26,2026.01,1295.84,1696.10,1836.09,599.80,595.08,59.14,0000 0000 0000 0000 000000
2016-09-17 06:26:56,0.21,8.59,0.00,24.43,28.77,31.39,14.59,52.49,1020.46,2026.00,1294.67,1695.05,1834.91,600.21,595.67,59.20,0000 0000 0000 0000 000000
2016-09-17 06:31:57,0.20,8.60,0.00,24.43,28.77,31.40,14.53,52.50,1020.51,2026.01,1293.52,1694.00,1833.78,600.18,595.62,59.25,0000 0000 0000 0000 000000
2016-09-17 06:36:58,0.19,8.61,0.00,24.37,28.77,31.39,14.57,52.53,1020.52,2026.00,1292.39,1692.97,1832.61,599.68,595.24,59.30,0000 0000 0000 0000 000000
2016-09-17 06:41:59,0.19,8.62,0.00,24.38,28.77,31.40,14.56,52.54,1020.52,2026.01,1291.26,1691.98,1831.54,600.46,595.93,59.35,0000 0000 0000 0000 000000
2016-09-17 06:47:00,0.18,8.63,0.00,24.44,28.78,31.40,14.49,52.54,1020.52,2026.00,1290.08,1691.03,1830.39,599.79,595.37,59.40,0000 0000 0000 0000 000000
2016-09-17 06:52:01,0.20,8.64,0.00,24.40,28.79,31.42,14.46,52.53,1020.52,2026.00,1288.91,1690.06,1829.30,599.79,595.40,59.45,0000 0000 0000 0000 000000
2016-09-17 06:57:03,0.19,8.65,0.00,24.44,28.79,31.41,14.56,52.53,1020.55,2026.00,1287.77,1689.10,1828.25,599.83,595.30,59.50,0000 0000 0000 0000 000000
2016-09-17 07:02:04,0.20,8.66,0.00,24.37,28.80,31.41,14.52,52.40,1020.63,2026.00,1286.62,1688.14,1827.13,599.83,595.56,59.55,0000 0000 0000 0000 000000
2016-09-17 07:07:05,0.18,8.67,0.00,24.39,28.80,31.41,14.53,52.55,1020.67,2026.00,1285.59,1687.21,1826.06,599.88,595.44,59.60,0000 0000 0000 0000 000000
2016-09-17 07:12:06,0.18,8.68,0.00,24.40,28.80,31.45,14.62,53.06,1020.62,2026.00,1284.57,1686.27,1825.08,600.14,595.56,59.65,0000 0000 0000 0000 000000
2016-09-17 07:17:08,0.17,8.69,0.00,24.48,28.80,31.43,14.65,52.76,1020.83,2026.00,1283.68,1685.44,1824.10,600.16,595.64,59.70,0000 0000 0000 0000 000000
2016-09-17 07:22:09,0.15,8.69,0.00,24.47,28.80,31.43,14.53,52.48,1020.96,2026.00,1282.77,1684.66,1823.18,599.98,595.66,59.75,0000 0000 0000 0000 000000
2016-09-17 07:27:10,0.11,8.70,0.00,24.44,28.80,31.41,14.51,52.63,1021.01,2026.00,1281.90,1683.94,1822.26,599.87,595.47,59.80,0000 0000 0000 0000 000000
2016-09-17 07:32:11,0.17,8.71,0.00,24.43,28.80,31.43,14.59,52.57,1021.01,2026.00,1281.05,1683.10,1821.46,600.12,595.69,59.85,0000 0000 0000 0000 000000
2016-09-17 07:37:12,0.16,8.72,0.00,24.46,28.80,31.44,14.69,52.74,1021.01,2025.99,1280.23,1682.45,1820.70,600.41,596.04,59.90,0000 0000 0000 0000 000000
2016-09-17 07:42:14,0.13,8.72,0.00,24.51,28.80,31.42,14.57,52.55,1021.01,2025.99,1279.39,1681.73,1819.89,600.02,595.68,59.95,0000 0000 0000 0000 000000
2016-09-17 07:47:15,0.13,8.73,0.00,24.40,28.80,31.41,14.63,52.65,1021.01,2025.99,1278.62,1681.01,1819.04,600.18,596.13,60.00,0000 0000 0000 0000 000000
2016-09-17 07:52:16,0.13,8.74,0.00,24.40,28.80,31.42,14.58,52.57,1021.01,2025.99,1277.87,1680.18,1818.17,600.08,595.92,60.05,0000 0000 0000 0000 000000
2016-09-17 07:57:17,0.15,8.75,0.00,24.43,28.80,31.41,14.55,52.47,1021.01,2025.99,1277.01,1679.57,1817.41,600.08,595.78,60.10,0000 0000 0000 0000 000000
2016-09-17 08:02:18,0.10,1.75,0.00,24.42,28.82,31.42,12.94,42.07,1021.02,2029.99,3091.41,2845.55,3212.67,535.23,531.53,0.00,0000 0000 0000 0000 000000
2016-09-17 08:07:20,0.10,0.00,0.00,24.41,28.82,31.43,14.48,46.78,1021.01,2030.98,3539.40,3134.82,3559.13,599.89,595.67,0.05,0000 0000 0000 0000 000000
2016-09-17 08:12:21,0.11,0.01,0.00,24.38,28.82,31.42,14.50,46.73,1021.02,2030.97,3535.57,3132.71,3556.06,600.08,595.91,0.10,0000 0000 0000 0000 000000
2016-09-17 08:17:22,0.12,0.01,0.00,24.47,28.82,31.43,14.44,46.79,1021.02,2030.98,3532.24,3130.73,3553.36,599.74,595.40,0.15,0000 0000 0000 0000 000000
2016-09-17 08:22:23,0.13,0.02,0.00,24.45,28.82,31.45,14.44,46.83,1021.01,2030.98,3529.01,3128.76,3550.72,599.75,595.57,0.20,0000 0000 0000 0000 000000
2016-09-17 08:27:24,0.14,0.03,0.00,24.53,28.82,31.44,14.52,46.83,1021.02,2030.97,3525.77,3126.72,3548.00,600.04,595.46,0.25,0000 0000 0000 0000 000000
2016-09-17 08:32:26,0.14,0.03,0.00,24.40,28.82,31.43,14.51,46.76,1021.01,2030.97,3522.43,3124.57,3545.26,600.33,596.15,0.30,0000 0000 0000 0000 000000
2016-09-17 08:37:27,0.13,0.04,0.00,24.43,28.82,31.46,14.44,46.97,1021.01,2030.94,3519.19,3122.42,3542.48,599.73,595.46,0.35,0000 0000 0000 0000 000000
2016-09-17 08:42:28,0.13,0.05,0.00,24.50,28.82,31.43,14.43,46.73,1021.02,2030.94,3516.06,3120.42,3539.91,599.93,595.52,0.40,0000 0000 0000 0000 000000
2016-09-17 08:47:29,0.13,0.06,0.00,24.48,28.82,31.44,14.53,46.62,1021.03,2030.94,3512.91,3118.42,3537.36,600.13,595.73,0.45,0000 0000 0000 0000 000000
2016-09-17 08:52:30,0.13,0.06,0.00,24.41,28.82,31.44,14.42,46.71,1021.04,2030.91,3509.81,3116.46,3534.89,599.99,595.69,0.50,0000 0000 0000 0000 000000
2016-09-17 08:57:32,0.13,0.07,0.00,24.47,28.82,31.44,14.47,46.63,1021.09,2030.91,3506.67,3114.48,3532.34,599.71,595.36,0.55,0000 0000 0000 0000 000000
2016-09-17 09:02:33,0.13,0.08,0.00,24.50,28.82,31.43,14.44,46.67,1021.23,2030.90,3503.53,3112.52,3529.83,600.16,595.93,0.60,0000 0000 0000 0000 000000
2016-09-17 09:07:34,0.13,0.08,0.00,24.49,28.82,31.44,14.34,46.69,1021.48,2030.93,3500.41,3110.52,3527.35,599.86,595.64,0.65,0000 0000 0000 0000 000000
2016-09-17 09:12:36,0.13,0.09,0.00,24.36,28.81,31.45,14.51,46.67,1021.50,2030.95,3497.33,3108.59,3524.88,600.00,596.07,0.70,0000 0000 0000 0000 000000
2016-09-17 09:17:37,0.13,0.10,0.00,24.46,28.81,31.44,14.47,46.63,1021.50,2030.96,3494.24,3106.61,3522.42,600.10,596.09,0.75,0000 0000 0000 0000 000000
2016-09-17 09:22:39,0.13,0.10,0.00,24.54,28.81,31.44,14.46,46.68,1021.51,2030.97,3491.23,3104.65,3520.01,600.00,595.76,0.80,0000 0000 0000 0000 000000
2016-09-17 09:27:40,0.13,0.11,0.00,24.54,28.81,31.48,14.43,46.74,1021.52,2030.95,3488.26,3102.76,3517.74,600.02,595.97,0.85,0000 0000 0000 0000 000000
2016-09-17 09:32:41,0.13,0.12,0.00,24.52,28.80,31.45,14.42,46.74,1021.75,2030.94,3485.24,3100.79,3515.33,599.80,595.72,0.90,0000 0000 0000 0000 000000
2016-09-17 09:37:42,0.13,0.12,0.00,24.53,28.81,31.44,14.47,46.73,1021.70,2030.89,3482.19,3098.79,3512.87,599.92,595.95,0.95,0000 0000 0000 0000 000000
2016-09-17 09:42:44,0.13,0.13,0.00,24.44,28.81,31.45,14.50,46.65,1021.70,2030.93,3479.23,3096.91,3510.40,599.91,596.03,1.00,0000 0000 0000 0000 000000
2016-09-17 09:47:45,0.13,0.14,0.00,24.42,28.81,31.43,14.49,46.73,1021.82,2030.96,3476.29,3095.01,3508.04,599.74,595.97,1.05,0000 0000 0000 0000 000000
2016-09-17 09:52:47,0.12,0.14,0.00,24.47,28.81,31.44,14.53,46.80,1021.77,2030.97,3473.30,3093.12,3505.64,600.30,596.41,1.10,0000 0000 0000 0000 000000
2016-09-17 09:57:48,0.13,0.15,0.00,24.47,28.82,31.44,14.43,46.67,1021.65,2030.96,3470.25,3091.12,3503.19,599.92,595.94,1.16,0000 0000 0000 0000 000000
2016-09-17 10:02:50,0.12,0.16,0.00,24.41,28.82,31.43,14.53,46.73,1021.59,2030.91,3467.21,3089.17,3500.77,600.04,596.14,1.21,0000 0000 0000 0000 000000
2016-09-17 10:07:51,0.13,0.16,0.00,24.46,28.82,31.42,14.54,46.76,1021.55,2030.89,3464.21,3087.28,3498.33,600.21,596.12,1.26,0000 0000 0000 0000 000000
2016-09-17 10:12:52,0.12,0.17,0.00,24.53,28.82,31.44,14.41,46.58,1021.53,2030.82,3461.22,3085.35,3495.93,599.99,595.87,1.31,0000 0000 0000 0000 000000
2016-09-17 10:17:53,0.13,0.18,0.00,24.48,28.82,31.46,14.50,46.67,1021.52,2030.81,3458.27,3083.44,3493.51,599.83,595.82,1.36,0000 0000 0000 0000 000000
2016-09-17 10:22:55,0.13,0.18,0.00,24.44,28.82,31.44,14.51,46.72,1021.52,2030.79,3455.37,3081.61,3491.22,599.96,596.06,1.41,0000 0000 0000 0000 000000
2016-09-17 10:27:55,0.12,0.19,0.00,24.50,28.82,31.44,14.54,46.68,1021.51,2030.75,3452.43,3079.66,3488.85,600.25,596.19,1.46,0000 0000 0000 0000 000000
2016-09-17 10:32:57,0.11,0.20,0.00,24.44,28.82,31.46,14.48,46.75,1021.50,2030.64,3449.42,3077.74,3486.38,600.15,596.09,1.51,0000 0000 0000 0000 000000
2016-09-17 10:37:58,0.14,0.20,0.00,24.45,28.82,31.44,14.53,46.67,1021.52,2030.63,3446.37,3075.85,3483.99,600.23,596.17,1.56,0000 0000 0000 0000 000000
2016-09-17 10:42:59,0.12,0.21,0.00,24.53,28.82,31.44,14.46,46.73,1021.58,2030.61,3443.32,3073.94,3481.56,599.92,595.82,1.61,0000 0000 0000 0000 000000
2016-09-17 10:48:00,0.14,0.22,0.00,24.49,28.82,31.43,14.55,46.71,1021.55,2030.69,3440.27,3072.02,3479.17,600.23,596.18,1.66,0000 0000 0000 0000 000000
2016-09-17 10:53:02,0.14,0.22,0.00,24.48,28.82,31.44,14.50,46.61,1021.51,2030.74,3437.00,3070.04,3476.57,600.14,596.10,1.71,0000 0000 0000 0000 000000
2016-09-17 10:58:04,0.14,0.23,0.00,24.54,28.82,31.44,14.55,46.48,1021.51,2030.67,3433.70,3067.88,3473.89,600.33,596.23,1.76,0000 0000 0000 0000 000000
2016-09-17 11:03:05,0.15,0.24,0.00,24.50,28.82,31.45,14.57,46.52,1021.54,2030.78,3430.33,3065.75,3471.18,600.36,596.33,1.81,0000 0000 0000 0000 000000
2016-09-17 11:08:06,0.11,0.25,0.00,24.51,28.82,31.44,14.47,46.55,1021.69,2030.53,3426.92,3063.55,3468.43,600.46,596.37,1.86,0000 0000 0000 0000 000000
2016-09-17 11:13:08,0.16,0.25,0.00,24.47,28.82,31.44,14.57,46.71,1021.53,2030.61,3423.61,3061.33,3465.73,600.52,596.47,1.91,0000 0000 0000 0000 000000
2016-09-17 11:18:09,0.16,0.26,0.00,24.48,28.81,31.44,14.47,46.62,1021.57,2030.61,3420.24,3059.23,3463.09,599.81,595.87,1.96,0000 0000 0000 0000 000000
2016-09-17 11:23:10,0.15,0.27,0.00,24.54,28.81,31.45,14.46,46.63,1021.63,2030.74,3417.00,3057.16,3460.51,599.96,595.84,2.01,0000 0000 0000 0000 000000
2016-09-17 11:28:12,0.15,0.28,0.00,24.51,28.81,31.44,14.41,46.52,1021.64,2030.78,3413.58,3054.97,3457.69,599.67,595.61,2.06,0000 0000 0000 0000 000000
2016-09-17 11:33:13,0.15,0.28,0.00,24.55,28.80,31.47,14.36,46.43,1021.64,2030.79,3409.99,3052.63,3454.92,599.25,595.25,2.11,0000 0000 0000 0000 000000
2016-09-17 11:38:14,0.16,0.29,0.00,24.51,28.80,31.43,14.43,46.63,1021.84,2030.81,3406.56,3050.37,3452.18,599.80,596.01,2.16,0000 0000 0000 0000 000000
2016-09-17 11:43:16,0.16,0.30,0.00,24.52,28.80,31.46,14.54,46.42,1021.96,2030.86,3403.18,3048.19,3449.42,599.99,596.02,2.21,0000 0000 0000 0000 000000
2016-09-17 11:48:17,0.15,0.31,0.00,24.49,28.80,31.45,14.48,46.58,1021.97,2030.76,3399.71,3045.92,3446.57,599.76,595.93,2.26,0000 0000 0000 0000 000000
2016-09-17 11:53:18,0.13,0.31,0.00,24.53,28.80,31.45,14.43,46.40,1021.94,2030.65,3396.51,3043.83,3443.97,599.76,595.85,2.31,0000 0000 0000 0000 000000
2016-09-17 11:58:20,0.14,0.32,0.00,24.55,28.80,31.44,14.42,46.53,1021.93,2030.62,3393.34,3041.66,3441.39,599.81,595.78,2.36,0000 0000 0000 0000 000000
2016-09-17 12:03:21,0.13,0.33,0.00,24.44,28.80,31.44,14.56,46.82,1021.90,2030.47,3390.30,3039.56,3438.72,600.01,596.32,2.41,0000 0000 0000 0000 000000
2016-09-17 12:08:22,0.16,0.34,0.00,24.50,28.80,31.44,14.57,46.77,1021.65,2030.50,3386.99,3037.27,3435.93,600.20,596.18,2.46,0000 0000 0000 0000 000000
2016-09-17 12:13:23,0.14,0.34,0.00,24.55,28.80,31.43,14.47,46.90,1021.68,2030.42,3383.50,3035.04,3433.09,599.89,595.78,2.51,0000 0000 0000 0000 000000
2016-09-17 12:18:24,0.14,0.35,0.00,24.55,28.80,31.46,14.48,46.87,1021.62,2030.41,3380.18,3032.87,3430.38,600.32,596.14,2.56,0000 0000 0000 0000 000000
2016-09-17 12:23:26,0.15,0.36,0.00,24.47,28.80,31.44,14.49,46.85,1021.62,2030.34,3376.81,3030.70,3427.65,600.32,596.17,2.61,0000 0000 0000 0000 000000
2016-09-17 12:28:27,0.15,0.37,0.00,24.46,28.80,31.44,14.47,46.88,1021.55,2030.49,3373.59,3028.66,3425.12,599.80,595.79,2.66,0000 0000 0000 0000 000000
2016-09-17 12:33:28,0.13,0.37,0.00,24.51,28.80,31.46,14.45,46.87,1021.54,2030.45,3370.47,3026.64,3422.55,599.79,595.75,2.71,0000 0000 0000 0000 000000
2016-09-17 12:38:30,0.11,0.38,0.00,24.50,28.80,31.49,14.52,46.81,1021.54,2030.40,3367.70,3024.81,3420.28,599.98,595.83,2.76,0000 0000 0000 0000 000000
2016-09-17 12:43:31,0.11,0.39,0.00,24.50,28.80,31.44,14.41,46.77,1021.54,2030.46,3365.44,3023.42,3418.43,599.54,595.39,2.81,0000 0000 0000 0000 000000
2016-09-17 12:48:32,0.07,0.39,0.00,24.52,28.80,31.45,14.49,46.83,1021.65,2030.39,3363.45,3022.12,3416.82,599.87,595.92,2.86,0000 0000 0000 0000 000000
2016-09-17 12:53:33,0.04,0.39,0.00,24.50,28.80,31.47,14.47,46.99,1021.72,2030.13,3361.82,3021.05,3415.45,599.88,595.93,2.91,0000 0000 0000 0000 000000